Albuquerque, NM

4:32 AM MST on February 08, 2016 (GMT -0700)
Albuquerque International Sunport

Weather History for KABQ - May, 2013

Change the Weather History Date:

Tuesday, May 21, 2013

  Actual Average Record
Temperature  
Mean Temperature 64 °F 67 °F  
Max Temperature 81 °F 80 °F 96 °F (2005)
Min Temperature 47 °F 54 °F 36 °F (1911)
Degree Days  
Heating Degree Days 1 1  
Month to date heating degree days 63 62  
Since 1 July heating degree days 3894 4166  
Cooling Degree Days 0 4  
Month to date cooling degree days 32 43  
Year to date cooling degree days 40 50  
Growing Degree Days 16 (Base 50)    
Moisture  
Dew Point 28 °F    
Average Humidity 29    
Maximum Humidity 46    
Minimum Humidity 11    
Precipitation  
Precipitation 0.00 in 0.02 in 0.97 in (1991)
Month to date precipitation 0.08 0.34  
Year to date precipitation 0.68 2.38  
Snow  
Snow 0.00 in - - ()
Month to date snowfall 0.0  
Since 1 July snowfall 3.5  
Snow Depth 0.00 in    
Sea Level Pressure  
Sea Level Pressure 29.83 in    
Wind  
Wind Speed 6 mph (North)    
Max Wind Speed 20 mph    
Max Gust Speed 25 mph    
Visibility 10 miles    
Events      
T = Trace of Precipitation, MM = Missing Value Source: NWS Daily Summary

Daily Weather History Graph

Daily Weather History Graph

Search for Another Location

Airport or City:

Trip Planner

Search our weather history database for the weather conditions in past years. The results will help you decide how hot, cold, wet, or windy it might be!

Date:

Astronomy

May. 21, 2013 Rise Set
Actual Time 5:58 AM MDT 8:08 PM MDT
Civil Twilight 5:29 AM MDT 8:36 PM MDT
Nautical Twilight 4:55 AM MDT 9:11 PM MDT
Astronomical Twilight 4:17 AM MDT 9:49 PM MDT
Moon 4:32 PM MDT (5/21) 3:19 AM MDT (5/21)
Length of Visible Light 15h 06m
Length of Day
14h 09m
Waxing Gibbous, 84% of the Moon is Illuminated
May 21
Waxing Gibbous
May 24
Full
May 31
Last Quarter
Jun 8
New
Jun 16
First Quarter

Hourly Weather History & Observations

Time (MDT) Temp. Dew Point Humidity Pressure Visibility Wind Dir Wind Speed Gust Speed Precip Events Conditions
12:52 AM 57.0 °F 32.0 °F 39% 29.86 in 10.0 mi NNW 5.8 mph - N/A   Partly Cloudy
1:52 AM 55.9 °F 32.0 °F 40% 29.86 in 10.0 mi North 5.8 mph - N/A   Partly Cloudy
2:52 AM 55.0 °F 32.0 °F 42% 29.86 in 10.0 mi North 5.8 mph - N/A   Partly Cloudy
3:52 AM 54.0 °F 32.0 °F 43% 29.86 in 10.0 mi Calm Calm - N/A   Clear
4:52 AM 53.1 °F 32.0 °F 45% 29.87 in 10.0 mi North 5.8 mph - N/A   Clear
5:52 AM 50.0 °F 30.9 °F 48% 29.91 in 10.0 mi ENE 3.5 mph - N/A   Partly Cloudy
6:52 AM 53.1 °F 32.0 °F 45% 29.93 in 10.0 mi NNE 6.9 mph - N/A   Clear
7:52 AM 54.0 °F 32.0 °F 43% 29.95 in 10.0 mi North 4.6 mph - N/A   Clear
8:52 AM 55.9 °F 33.1 °F 42% 29.96 in 10.0 mi Calm Calm - N/A   Partly Cloudy
9:52 AM 61.0 °F 33.1 °F 35% 29.94 in 10.0 mi Calm Calm - N/A   Partly Cloudy
10:52 AM 64.9 °F 30.9 °F 28% 29.92 in 10.0 mi SE 5.8 mph - N/A   Partly Cloudy
11:52 AM 66.0 °F 32.0 °F 28% 29.91 in 10.0 mi Variable 3.5 mph - N/A   Partly Cloudy
12:52 PM 69.1 °F 30.0 °F 23% 29.87 in 10.0 mi Variable 5.8 mph - N/A   Partly Cloudy
1:52 PM 73.0 °F 28.0 °F 19% 29.83 in 10.0 mi Variable 6.9 mph - N/A   Partly Cloudy
2:52 PM 75.9 °F 26.1 °F 16% 29.80 in 10.0 mi SW 16.1 mph 24.2 mph N/A   Partly Cloudy
3:52 PM 78.1 °F 24.1 °F 14% 29.76 in 10.0 mi WSW 16.1 mph 23.0 mph N/A   Scattered Clouds
4:52 PM 79.0 °F 21.0 °F 12% 29.74 in 10.0 mi West 5.8 mph 25.3 mph N/A   Scattered Clouds
5:52 PM 79.0 °F 21.0 °F 12% 29.73 in 10.0 mi West 4.6 mph - N/A   Scattered Clouds
6:52 PM 79.0 °F 19.9 °F 11% 29.71 in 10.0 mi North 12.7 mph - N/A   Scattered Clouds
7:52 PM 77.0 °F 19.9 °F 12% 29.72 in 10.0 mi NNE 10.4 mph - N/A   Scattered Clouds
8:52 PM 73.9 °F 21.9 °F 14% 29.75 in 10.0 mi NNE 6.9 mph - N/A   Scattered Clouds
9:52 PM 73.0 °F 23.0 °F 15% 29.75 in 10.0 mi NE 4.6 mph - N/A   Scattered Clouds
10:52 PM 66.9 °F 21.0 °F 17% 29.77 in 10.0 mi East 4.6 mph - N/A   Mostly Cloudy
11:52 PM 68.0 °F 23.0 °F 18% 29.75 in 10.0 mi Calm Calm - N/A   Mostly Cloudy